sat.trackr.live / text

‹ back to catalog

STARLINK-31089

NORAD 58610 · 2023-200X

PAYLOAD ACTIVE UNKNOWN

§ Identity

Operator
Country
US
Launch date
2023-12-19
Launch site
AFETR
Launch vehicle
Mass (kg)
RCS (m²)

Purposes: comms

External: N2YO · Heavens-Above · Gunter

§ Orbital elements

Epoch: 2026-09-20T23:23:42.655200Z

Period
94.27 min
Inclination
43.0017°
Eccentricity
0.0001361
Mean motion
15.27579249 rev/d
Perigee alt
482.1 km
Apogee alt
484.0 km
Semi-major
6,861.2 km
B*
2.6653e-5
RAAN
146.2299°
Arg perigee
272.6317°
Mean anomaly
87.4378°
Rev number
15,347

§ Raw data

STARLINK-310891 58610U 23200X   26263.97479925  .00000471  00000+0  26653-4 0  99952 58610  43.0017 146.2299 0001361 272.6317  87.4378 15.27579249153477

JSON: /api/v1/satellites/58610 · /tle

For live sub-satellite position, see the globe view (requires WebGL).

§ Visibility from observer

Set your observer location to see the next 7 days of passes ≥ 10°. The values pass through the URL so the page stays shareable.

No JS? Fill the form by hand. The geolocation button needs JavaScript.